ACA299 CYWG-CYVR

Flight info

Callsign ACA299
Flight time N/A
Altitude 36000
Route LIVBI DCT DUKPO DCT FAREN DCT EMLIK Q828 BOOTH CANUC6
Aircraft A321/M-SDE3FGHIRWY/LB1

Departure

Time N/A
Airport Winnipeg / James Armstrong Richardson International Airport (CYWG)

Arrival

Time 2026-05-05 15:08
Airport Vancouver International Airport (CYVR)
Time Latitude Longitude Altitude Speed Heading
2026-05-05 13:49 51.03432 -111.01008 36346 ft 424 kts 287°
2026-05-05 13:49 51.03739 -111.05674 36348 ft 424 kts 287°
2026-05-05 13:50 51.04341 -111.14979 36344 ft 423 kts 286°
2026-05-05 13:50 51.04934 -111.24291 36352 ft 423 kts 286°
2026-05-05 13:51 51.05524 -111.33570 36313 ft 420 kts 288°
2026-05-05 13:51 51.06093 -111.42732 36334 ft 419 kts 288°
2026-05-05 13:52 51.06654 -111.51967 36345 ft 419 kts 288°
2026-05-05 13:52 51.07211 -111.61182 36341 ft 418 kts 288°
2026-05-05 13:53 51.07765 -111.70399 36346 ft 418 kts 288°
2026-05-05 13:53 51.08302 -111.79615 36339 ft 419 kts 287°
2026-05-05 13:54 51.08823 -111.88804 36320 ft 416 kts 288°
2026-05-05 13:54 51.08961 -111.93444 36318 ft 428 kts 280°
2026-05-05 13:54 51.08662 -111.98226 36323 ft 436 kts 276°
2026-05-05 13:55 51.07943 -112.07749 36333 ft 436 kts 276°
2026-05-05 13:55 51.07215 -112.17326 36335 ft 436 kts 276°
2026-05-05 13:56 51.06484 -112.26889 36330 ft 435 kts 276°
2026-05-05 13:56 51.05747 -112.36429 36295 ft 433 kts 276°
2026-05-05 13:57 51.04996 -112.45941 36315 ft 433 kts 276°
2026-05-05 13:57 51.04244 -112.55447 36321 ft 433 kts 276°
2026-05-05 13:58 51.03494 -112.64932 36318 ft 432 kts 276°
2026-05-05 13:58 51.02735 -112.74342 36324 ft 432 kts 276°
2026-05-05 13:59 51.01572 -112.88546 36312 ft 432 kts 276°
2026-05-05 14:00 51.00527 -113.01141 36329 ft 432 kts 276°
2026-05-05 14:00 50.99595 -113.12203 36322 ft 432 kts 276°
2026-05-05 14:01 50.98793 -113.21648 36321 ft 431 kts 276°
2026-05-05 14:01 50.97996 -113.31033 36265 ft 432 kts 275°
2026-05-05 14:02 50.97192 -113.40488 36283 ft 433 kts 275°
2026-05-05 14:02 50.96365 -113.49954 36284 ft 433 kts 275°
2026-05-05 14:03 50.95519 -113.59431 36277 ft 434 kts 275°
2026-05-05 14:03 50.94675 -113.68842 36261 ft 434 kts 275°
2026-05-05 14:04 50.93826 -113.78328 36256 ft 434 kts 275°
2026-05-05 14:04 50.92974 -113.87804 36247 ft 434 kts 275°
2026-05-05 14:05 50.92110 -113.97267 36245 ft 434 kts 275°
2026-05-05 14:05 50.91235 -114.06740 36249 ft 434 kts 275°
2026-05-05 14:06 50.90354 -114.16139 36254 ft 434 kts 275°
2026-05-05 14:06 50.89459 -114.25581 36234 ft 433 kts 274°
2026-05-05 14:07 50.88557 -114.35031 36254 ft 434 kts 274°
2026-05-05 14:07 50.87653 -114.44487 36243 ft 433 kts 274°
2026-05-05 14:08 50.86747 -114.53920 36247 ft 433 kts 274°
2026-05-05 14:08 50.85831 -114.63347 36262 ft 433 kts 274°
2026-05-05 14:09 50.84905 -114.72776 36234 ft 432 kts 274°
2026-05-05 14:09 50.83979 -114.82139 36253 ft 431 kts 274°
2026-05-05 14:10 50.83048 -114.91443 36261 ft 431 kts 274°
2026-05-05 14:10 50.82099 -115.00807 36260 ft 431 kts 274°
2026-05-05 14:11 50.81143 -115.10180 36261 ft 431 kts 274°
2026-05-05 14:11 50.80190 -115.19525 36218 ft 430 kts 273°
2026-05-05 14:12 50.79230 -115.28844 36227 ft 429 kts 273°
2026-05-05 14:12 50.78257 -115.38167 36225 ft 430 kts 273°
2026-05-05 14:13 50.77275 -115.47504 36228 ft 430 kts 273°
2026-05-05 14:13 50.76288 -115.56831 36207 ft 431 kts 273°
2026-05-05 14:14 50.75286 -115.66171 36160 ft 431 kts 272°
2026-05-05 14:14 50.74282 -115.75475 36156 ft 429 kts 272°
2026-05-05 14:15 50.73277 -115.84781 36170 ft 430 kts 272°
2026-05-05 14:15 50.72276 -115.94032 36178 ft 430 kts 272°
2026-05-05 14:16 50.71254 -116.03340 36186 ft 431 kts 272°
2026-05-05 14:16 50.70224 -116.12629 36133 ft 430 kts 272°
2026-05-05 14:17 50.69181 -116.21960 36151 ft 431 kts 272°
2026-05-05 14:17 50.68128 -116.31277 36155 ft 431 kts 272°
2026-05-05 14:18 50.66980 -116.40590 36163 ft 438 kts 266°
2026-05-05 14:18 50.65362 -116.49812 36150 ft 440 kts 266°
2026-05-05 14:19 50.63716 -116.59115 36121 ft 441 kts 266°
2026-05-05 14:19 50.62066 -116.68420 36102 ft 441 kts 265°
2026-05-05 14:20 50.60412 -116.77698 36097 ft 439 kts 265°
2026-05-05 14:20 50.58754 -116.86978 36093 ft 440 kts 265°
2026-05-05 14:21 50.57094 -116.96244 36102 ft 440 kts 265°
2026-05-05 14:21 50.55432 -117.05439 36072 ft 440 kts 265°
2026-05-05 14:22 50.53745 -117.14706 36078 ft 441 kts 265°
2026-05-05 14:22 50.52056 -117.23972 36075 ft 441 kts 265°
2026-05-05 14:23 50.50358 -117.33240 36084 ft 441 kts 264°
2026-05-05 14:23 50.48651 -117.42486 36077 ft 441 kts 264°
2026-05-05 14:24 50.47224 -117.50162 36036 ft 440 kts 264°
2026-05-05 14:24 50.45504 -117.59385 36036 ft 439 kts 264°
2026-05-05 14:25 50.43785 -117.68593 36056 ft 440 kts 264°
2026-05-05 14:25 50.42061 -117.77796 36054 ft 439 kts 264°
2026-05-05 14:26 50.40340 -117.86922 36041 ft 439 kts 264°
2026-05-05 14:26 50.38597 -117.96105 36030 ft 440 kts 263°
2026-05-05 14:27 50.36848 -118.05283 36031 ft 440 kts 263°
2026-05-05 14:27 50.35082 -118.14463 36037 ft 440 kts 263°
2026-05-05 14:28 50.33309 -118.23642 36027 ft 441 kts 263°
2026-05-05 14:28 50.31531 -118.32827 36035 ft 440 kts 263°
2026-05-05 14:29 50.29749 -118.41989 36026 ft 440 kts 263°
2026-05-05 14:29 50.27971 -118.51150 36035 ft 440 kts 263°
2026-05-05 14:30 50.26186 -118.60253 36034 ft 441 kts 263°
2026-05-05 14:30 50.24375 -118.69401 36034 ft 440 kts 263°
2026-05-05 14:31 50.22557 -118.78553 35995 ft 441 kts 262°
2026-05-05 14:31 50.20732 -118.87683 36002 ft 441 kts 262°
2026-05-05 14:32 50.18898 -118.96825 36019 ft 442 kts 262°
2026-05-05 14:32 50.17062 -119.05963 36020 ft 441 kts 262°
2026-05-05 14:33 50.15219 -119.15087 36026 ft 441 kts 262°
2026-05-05 14:33 50.13369 -119.24201 36008 ft 441 kts 261°
2026-05-05 14:34 50.11512 -119.33307 36016 ft 441 kts 261°
2026-05-05 14:34 50.09654 -119.42399 36019 ft 441 kts 261°
2026-05-05 14:35 50.07784 -119.51493 36019 ft 441 kts 261°
2026-05-05 14:35 50.05909 -119.60563 35983 ft 441 kts 261°
2026-05-05 14:36 50.04026 -119.69641 35995 ft 441 kts 261°
2026-05-05 14:36 50.02134 -119.78731 35999 ft 442 kts 261°
2026-05-05 14:37 50.00247 -119.87735 36001 ft 442 kts 261°
2026-05-05 14:37 49.98317 -119.96877 36009 ft 443 kts 260°
2026-05-05 14:38 49.96408 -120.05903 35987 ft 442 kts 260°
2026-05-05 14:38 49.94483 -120.14974 36007 ft 442 kts 260°
2026-05-05 14:39 49.92546 -120.24033 36016 ft 442 kts 260°
2026-05-05 14:39 49.90606 -120.33096 36015 ft 442 kts 259°
2026-05-05 14:40 49.88666 -120.42141 36032 ft 442 kts 259°
2026-05-05 14:40 49.86713 -120.51185 36023 ft 442 kts 259°
2026-05-05 14:41 49.84746 -120.60224 36037 ft 442 kts 259°
2026-05-05 14:41 49.82771 -120.69245 36055 ft 442 kts 259°
2026-05-05 14:42 49.80809 -120.78189 35762 ft 441 kts 258°
2026-05-05 14:42 49.79820 -120.82683 35515 ft 441 kts 258°
2026-05-05 14:42 49.78834 -120.87167 35105 ft 439 kts 258°
2026-05-05 14:43 49.77851 -120.91622 34562 ft 437 kts 258°
2026-05-05 14:43 49.76866 -120.96076 34002 ft 435 kts 258°
2026-05-05 14:43 49.75890 -121.00491 33395 ft 433 kts 258°
2026-05-05 14:43 49.74916 -121.04868 32854 ft 429 kts 257°
2026-05-05 14:44 49.73947 -121.09209 32310 ft 425 kts 258°
2026-05-05 14:44 49.72986 -121.13511 31764 ft 422 kts 257°
2026-05-05 14:44 49.72030 -121.17792 31223 ft 420 kts 257°
2026-05-05 14:44 49.71081 -121.22035 30703 ft 416 kts 257°
2026-05-05 14:45 49.70135 -121.26252 30142 ft 414 kts 256°
2026-05-05 14:45 49.69195 -121.30434 29601 ft 410 kts 257°
2026-05-05 14:45 49.68266 -121.34557 29098 ft 403 kts 257°
2026-05-05 14:45 49.67348 -121.38617 28592 ft 397 kts 257°
2026-05-05 14:46 49.66452 -121.42567 28106 ft 394 kts 257°
2026-05-05 14:46 49.65552 -121.46536 27624 ft 390 kts 257°
2026-05-05 14:46 49.64661 -121.50469 27147 ft 387 kts 257°
2026-05-05 14:46 49.63773 -121.54382 26676 ft 385 kts 257°
2026-05-05 14:47 49.62889 -121.58270 26232 ft 383 kts 257°
2026-05-05 14:47 49.62011 -121.62125 25777 ft 379 kts 257°
2026-05-05 14:47 49.61140 -121.65941 25349 ft 376 kts 257°
2026-05-05 14:47 49.60270 -121.69741 24920 ft 374 kts 257°
2026-05-05 14:48 49.59406 -121.73501 24489 ft 371 kts 256°
2026-05-05 14:48 49.58547 -121.77236 24066 ft 368 kts 256°
2026-05-05 14:48 49.57692 -121.80946 23641 ft 366 kts 257°
2026-05-05 14:48 49.56842 -121.84629 23154 ft 364 kts 257°
2026-05-05 14:49 49.55995 -121.88287 22711 ft 361 kts 256°
2026-05-05 14:49 49.55152 -121.91924 22290 ft 359 kts 256°
2026-05-05 14:49 49.54314 -121.95536 21865 ft 358 kts 256°
2026-05-05 14:49 49.53479 -121.99128 21429 ft 356 kts 256°
2026-05-05 14:50 49.52646 -122.02703 20993 ft 354 kts 255°
2026-05-05 14:50 49.51588 -122.06143 20548 ft 358 kts 245°
2026-05-05 14:50 49.50285 -122.09404 20103 ft 357 kts 243°
2026-05-05 14:50 49.48974 -122.12652 19663 ft 356 kts 243°
2026-05-05 14:51 49.47667 -122.15884 19225 ft 355 kts 243°
2026-05-05 14:51 49.46367 -122.19111 18775 ft 355 kts 243°
2026-05-05 14:51 49.45065 -122.22385 18317 ft 369 kts 243°
2026-05-05 14:51 49.43727 -122.25767 17785 ft 371 kts 243°
2026-05-05 14:52 49.42391 -122.29141 17304 ft 369 kts 243°
2026-05-05 14:52 49.41058 -122.32497 16817 ft 366 kts 242°
2026-05-05 14:52 49.39736 -122.35812 16348 ft 363 kts 242°
2026-05-05 14:52 49.38383 -122.39075 15872 ft 361 kts 241°
2026-05-05 14:53 49.37008 -122.42284 15400 ft 358 kts 240°
2026-05-05 14:53 49.35630 -122.45452 14927 ft 356 kts 240°
2026-05-05 14:53 49.34259 -122.48595 14469 ft 353 kts 239°
2026-05-05 14:53 49.32899 -122.51717 14008 ft 351 kts 240°
2026-05-05 14:54 49.31551 -122.54817 13517 ft 348 kts 239°
2026-05-05 14:54 49.30216 -122.57891 13055 ft 344 kts 239°
2026-05-05 14:54 49.28905 -122.60917 12599 ft 340 kts 239°
2026-05-05 14:54 49.27605 -122.63925 12140 ft 336 kts 239°
2026-05-05 14:55 49.26329 -122.66881 11864 ft 326 kts 239°
2026-05-05 14:55 49.25235 -122.69819 11697 ft 311 kts 251°
2026-05-05 14:55 49.24698 -122.72946 11399 ft 299 kts 266°
2026-05-05 14:55 49.24716 -122.76091 11018 ft 294 kts 281°
2026-05-05 14:56 49.25078 -122.79145 10535 ft 294 kts 282°
2026-05-05 14:56 49.25443 -122.82209 10134 ft 291 kts 282°
2026-05-05 14:56 49.25797 -122.85245 9698 ft 289 kts 281°
2026-05-05 14:56 49.26140 -122.88206 9553 ft 276 kts 281°
2026-05-05 14:57 49.26468 -122.91043 9366 ft 266 kts 281°
2026-05-05 14:57 49.26785 -122.93791 9189 ft 261 kts 281°
2026-05-05 14:57 49.27100 -122.96525 8845 ft 260 kts 281°
2026-05-05 14:57 49.27415 -122.99243 8583 ft 255 kts 281°
2026-05-05 14:58 49.27723 -123.01892 8268 ft 251 kts 281°
2026-05-05 14:58 49.28020 -123.04453 7949 ft 248 kts 281°
2026-05-05 14:58 49.28323 -123.07018 7648 ft 247 kts 281°
2026-05-05 14:58 49.28627 -123.09562 7362 ft 246 kts 281°
2026-05-05 14:59 49.28935 -123.12136 7071 ft 245 kts 281°
2026-05-05 14:59 49.29239 -123.14691 6773 ft 245 kts 281°
2026-05-05 14:59 49.29540 -123.17240 6483 ft 245 kts 280°
2026-05-05 14:59 49.29841 -123.19808 6174 ft 244 kts 281°
2026-05-05 15:00 49.30138 -123.22350 5886 ft 241 kts 281°
2026-05-05 15:00 49.30332 -123.24016 5685 ft 239 kts 281°
2026-05-05 15:00 49.30715 -123.27336 5362 ft 233 kts 280°
2026-05-05 15:00 49.30984 -123.29773 5186 ft 231 kts 279°
2026-05-05 15:01 49.31245 -123.32201 5007 ft 231 kts 279°
2026-05-05 15:01 49.31504 -123.34621 4838 ft 230 kts 279°
2026-05-05 15:01 49.31763 -123.37034 4634 ft 229 kts 279°
2026-05-05 15:01 49.32021 -123.39441 4452 ft 229 kts 279°
2026-05-05 15:02 49.32279 -123.41838 4273 ft 228 kts 278°
2026-05-05 15:02 49.32192 -123.44237 4089 ft 227 kts 248°
2026-05-05 15:02 49.31252 -123.46139 3894 ft 226 kts 212°
2026-05-05 15:02 49.29801 -123.46903 3706 ft 223 kts 183°
2026-05-05 15:03 49.28262 -123.47154 3509 ft 225 kts 186°
2026-05-05 15:03 49.26694 -123.47253 3445 ft 223 kts 169°
2026-05-05 15:03 49.25230 -123.46559 3372 ft 220 kts 149°
2026-05-05 15:03 49.24044 -123.45186 3218 ft 210 kts 130°
2026-05-05 15:04 49.23256 -123.43351 3016 ft 204 kts 111°
2026-05-05 15:04 49.22902 -123.41291 2791 ft 198 kts 99°
2026-05-05 15:04 49.22677 -123.39267 2538 ft 193 kts 99°
2026-05-05 15:04 49.22455 -123.37284 2293 ft 184 kts 100°
2026-05-05 15:05 49.22051 -123.33673 1832 ft 157 kts 102°
2026-05-05 15:05 49.21875 -123.32105 1616 ft 143 kts 102°
2026-05-05 15:05 49.21712 -123.30658 1430 ft 134 kts 102°
2026-05-05 15:06 49.21556 -123.29269 1239 ft 132 kts 103°
2026-05-05 15:06 49.21402 -123.27914 1068 ft 131 kts 101°
2026-05-05 15:06 49.21247 -123.26538 888 ft 132 kts 100°
2026-05-05 15:06 49.21090 -123.25152 717 ft 131 kts 100°
2026-05-05 15:07 49.20936 -123.23790 549 ft 129 kts 100°
2026-05-05 15:07 49.20787 -123.22446 376 ft 128 kts 100°
2026-05-05 15:07 49.20626 -123.21110 210 ft 127 kts 99°
2026-05-05 15:07 49.20480 -123.19783 39 ft 125 kts 99°
2026-05-05 15:08 49.20356 -123.18684 27 ft 54 kts 99°
2026-05-05 15:08 49.20307 -123.18238 24 ft 39 kts 99°
2026-05-05 15:08 49.20257 -123.17841 22 ft 35 kts 104°
2026-05-05 15:08 49.20162 -123.17597 23 ft 26 kts 130°
2026-05-05 15:09 49.20076 -123.17434 24 ft 15 kts 129°
2026-05-05 15:09 49.20004 -123.17352 24 ft 8 kts 195°
2026-05-05 15:09 49.19995 -123.17387 23 ft 4 kts 268°
2026-05-05 15:09 49.20010 -123.17546 23 ft 27 kts 282°
2026-05-05 15:10 49.20041 -123.17801 23 ft 21 kts 279°
2026-05-05 15:10 49.20066 -123.18015 23 ft 20 kts 280°
2026-05-05 15:10 49.20089 -123.18223 25 ft 20 kts 279°
2026-05-05 15:10 49.20111 -123.18425 23 ft 19 kts 279°
2026-05-05 15:11 49.20071 -123.18518 23 ft 11 kts 189°
2026-05-05 15:11 49.19994 -123.18535 23 ft 11 kts 189°
2026-05-05 15:11 49.19919 -123.18556 24 ft 11 kts 190°
2026-05-05 15:11 49.19844 -123.18573 23 ft 11 kts 188°
2026-05-05 15:12 49.19769 -123.18589 23 ft 11 kts 191°
2026-05-05 15:12 49.19726 -123.18625 23 ft 11 kts 223°
2026-05-05 15:12 49.19662 -123.18673 25 ft 11 kts 191°
2026-05-05 15:12 49.19589 -123.18693 24 ft 11 kts 190°
2026-05-05 15:13 49.19537 -123.18659 23 ft 5 kts 103°
2026-05-05 15:13 49.19534 -123.18615 23 ft 1 kts 98°
2026-05-05 15:13 49.19533 -123.18610 23 ft 1 kts 98°
2026-05-05 15:13 49.19533 -123.18608 23 ft 0 kts 98°